GW0983 Weather Reports


time (UTC)temp
C
wind
direction
speed
KPH
gust
KPH
rain 1hr
cm
rain 24hr
cm
rain mn
cm
humidity
%
barometer
mb
20260505230541 12 232 4.8 14.5 0.00 0.00 0.00 89 1019.1
20260505230052 12 221 4.8 14.5 0.00 0.00 0.00 88 1019.1
20260505225542 12 247 6.4 14.5 0.00 0.00 0.00 89 1019.2
20260505225041 12 299 4.8 12.9 0.00 0.00 0.00 89 1019.3
20260505224556 12 236 4.8 11.3 0.00 0.00 0.00 89 1019.1
20260505224044 12 225 4.8 14.5 0.00 0.00 0.00 88 1019.1
20260505223542 12 196 4.8 14.5 0.00 0.00 0.00 87 1019.2
20260505223048 12 246 3.2 6.4 0.00 0.00 0.00 88 1019.2
20260505222547 12 193 3.2 8.0 0.00 0.00 0.00 88 1019.1
20260505222043 12 221 4.8 16.1 0.00 0.00 0.00 88 1019.1
20260505221600 12 202 3.2 16.1 0.00 0.00 0.00 88 1019.2
20260505221043 12 269 6.4 16.1 0.00 0.00 0.00 87 1019.1
20260505220545 12 236 3.2 11.3 0.00 0.00 0.00 88 1019.2
20260505220054 12 246 4.8 9.7 0.00 0.00 0.00 88 1019.2
20260505215543 12 223 4.8 14.5 0.00 0.00 0.00 88 1019.3
20260505215043 12 229 6.4 14.5 0.00 0.00 0.00 89 1019.3
20260505214558 12 205 4.8 11.3 0.00 0.00 0.00 90 1019.4
20260505214043 12 203 3.2 14.5 0.00 0.00 0.00 91 1019.3
20260505213542 12 221 4.8 14.5 0.00 0.00 0.00 89 1019.4
20260505213053 12 261 3.2 12.9 0.00 0.00 0.00 90 1019.5
20260505212542 12 227 4.8 12.9 0.00 0.00 0.00 89 1019.4
20260505212043 12 232 3.2 11.3 0.00 0.00 0.00 90 1019.5
20260505211549 12 221 4.8 9.7 0.00 0.00 0.00 89 1019.5
20260505211044 12 205 4.8 11.3 0.00 0.00 0.00 90 1019.4
20260505210542 12 193 4.8 12.9 0.00 0.00 0.00 90 1019.5
20260505210048 12 210 3.2 12.9 0.00 0.00 0.00 91 1019.4
20260505205542 12 259 4.8 14.5 0.00 0.00 0.00 90 1019.5
20260505205044 12 209 3.2 14.5 0.00 0.00 0.00 91 1019.4
20260505204549 12 225 4.8 12.9 0.00 0.00 0.00 91 1019.5
20260505204041 12 265 4.8 12.9 0.00 0.00 0.00 91 1019.4
20260505203545 12 245 3.2 11.3 0.00 0.00 0.00 93 1019.5
20260505203107 12 205 4.8 11.3 0.00 0.00 0.00 93 1019.4
20260505202543 12 205 4.8 11.3 0.00 0.00 0.00 93 1019.5
20260505202042 11 234 4.8 11.3 0.00 0.00 0.00 93 1019.4
20260505201600 11 205 3.2 8.0 0.00 0.00 0.00 94 1019.5
20260505201045 11 238 3.2 12.9 0.00 0.00 0.00 95 1019.5
20260505200542 11 115 3.2 12.9 0.00 0.00 0.00 95 1019.5
20260505200053 11 228 4.8 12.9 0.00 0.00 0.00 96 1019.5
20260505195544 11 236 3.2 14.5 0.00 0.00 0.00 96 1019.5
20260505195041 11 279 3.2 14.5 0.00 0.00 0.00 96 1019.4
20260505194548 11 232 3.2 14.5 0.00 0.00 0.00 97 1019.5
20260505194043 11 216 4.8 14.5 0.00 0.00 0.00 97 1019.6
20260505193540 11 272 4.8 14.5 0.00 0.00 0.00 97 1019.7
20260505193046 11 247 4.8 12.9 0.00 0.00 0.00 97 1019.4
20260505192543 11 221 3.2 11.3 0.00 0.00 0.00 97 1019.5
20260505192044 11 235 3.2 16.1 0.00 0.00 0.00 97 1019.4
20260505191600 11 265 4.8 17.7 0.00 0.00 0.00 97 1019.4
20260505191041 11 238 6.4 17.7 0.00 0.00 0.00 97 1019.4
20260505190541 11 223 4.8 17.7 0.00 0.00 0.00 97 1019.4
20260505190050 11 292 4.8 12.9 0.00 0.00 0.00 98 1019.4
20260505185541 11 219 4.8 12.9 0.00 0.00 0.00 97 1019.4
20260505185042 11 247 6.4 12.9 0.00 0.00 0.00 98 1019.2
20260505184549 11 246 4.8 11.3 0.00 0.00 0.00 98 1019.2
20260505184042 11 265 4.8 12.9 0.00 0.00 0.00 98 1019.3
20260505183546 11 268 4.8 12.9 0.00 0.00 0.00 98 1019.2
20260505183046 10 215 3.2 12.9 0.00 0.00 0.00 98 1019.2
20260505182541 10 265 4.8 12.9 0.00 0.00 0.00 98 1019.3
20260505182041 10 196 6.4 12.9 0.00 0.00 0.00 98 1019.3
20260505181547 10 235 3.2 20.9 0.00 0.00 0.00 98 1019.3
20260505181041 10 223 4.8 20.9 0.00 0.00 0.00 98 1019.2
20260505180542 10 221 6.4 20.9 0.00 0.00 0.00 98 1019.2
20260505180057 10 221 6.4 14.5 0.00 0.00 0.00 98 1019.1
20260505175542 10 338 6.4 12.9 0.00 0.00 0.00 98 1019.2
20260505175042 10 200 3.2 11.3 0.00 0.00 0.00 98 1019.1
20260505174554 10 215 4.8 11.3 0.00 0.00 0.00 98 1018.9
20260505174042 10 226 4.8 14.5 0.00 0.00 0.00 98 1018.9
20260505173541 10 209 6.4 16.1 0.00 0.00 0.00 97 1018.8
20260505173055 10 201 6.4 16.1 0.00 0.00 0.00 98 1018.7
20260505172543 10 221 4.8 12.9 0.00 0.00 0.00 98 1018.8
20260505172042 10 238 4.8 12.9 0.00 0.00 0.00 98 1018.8
20260505171550 10 241 3.2 11.3 0.00 0.00 0.00 98 1018.8
20260505171042 10 243 4.8 12.9 0.00 0.00 0.00 98 1018.8
20260505170540 10 265 4.8 14.5 0.00 0.00 0.00 98 1018.8
20260505170106 10 228 6.4 14.5 0.00 0.00 0.00 98 1018.8
20260505165543 10 265 6.4 14.5 0.00 0.00 0.00 98 1018.8
20260505165043 10 268 6.4 19.3 0.00 0.00 0.00 98 1018.8
20260505164550 10 208 3.2 19.3 0.00 0.00 0.00 97 1018.8
20260505164042 10 250 8.0 19.3 0.00 0.00 0.00 98 1018.7
20260505163542 10 238 4.8 11.3 0.00 0.00 0.00 98 1018.6
20260505163053 10 225 4.8 17.7 0.00 0.00 0.00 98 1018.7
20260505162542 10 230 6.4 17.7 0.00 0.00 0.00 97 1018.7
20260505162042 10 178 4.8 11.3 0.00 0.00 0.00 98 1018.7
20260505161612 10 219 3.2 14.5 0.00 0.00 0.00 97 1018.6
20260505161042 10 242 3.2 16.1 0.00 0.00 0.00 97 1018.6
20260505160542 10 196 4.8 16.1 0.00 0.00 0.00 98 1018.5
20260505153100 9 221 6.4 16.1 0.00 0.00 0.00 97 1018.3
20260505152540 9 209 6.4 17.7 0.00 0.00 0.00 97 1018.3
20260505152042 9 226 6.4 17.7 0.00 0.00 0.00 97 1018.2
20260505151605 9 215 8.0 17.7 0.00 0.00 0.00 97 1018.2
20260505151040 9 232 8.0 19.3 0.00 0.00 0.00 97 1018.2
20260505150542 10 232 8.0 19.3 0.00 0.00 0.00 97 1018.1
20260505140540 9 193 4.8 12.9 0.00 0.00 0.00 97 1017.9
20260505124550 8 232 4.8 8.0 0.00 0.00 0.00 97 1017.5
20260505124041 8 247 3.2 8.0 0.00 0.00 0.00 97 1017.5
20260505123541 8 239 3.2 8.0 0.00 0.00 0.00 97 1017.6
20260505123051 8 259 0.0 6.4 0.00 0.00 0.00 97 1017.7
20260505122544 8 0 1.6 6.4 0.00 0.00 0.00 97 1017.6
20260505122042 8 108 3.2 6.4 0.00 0.00 0.00 97 1017.7
20260505121608 8 217 3.2 6.4 0.00 0.00 0.00 97 1017.7
20260505121039 8 255 1.6 4.8 0.00 0.00 0.00 97 1017.7
20260505120541 8 0 0.0 4.8 0.00 0.00 0.00 97 1017.7
20260505120048 8 205 1.6 6.4 0.00 0.00 0.00 97 1017.8
20260505115546 8 239 1.6 6.4 0.00 0.00 0.00 97 1017.7
20260505115041 8 162 1.6 6.4 0.00 0.00 0.00 97 1017.7
20260505114554 8 205 1.6 8.0 0.00 0.00 0.00 97 1017.6
20260505114041 8 0 1.6 8.0 0.00 0.00 0.00 97 1017.6
20260505113544 8 209 3.2 8.0 0.00 0.00 0.00 97 1017.4
20260505113050 8 200 1.6 6.4 0.00 0.00 0.00 97 1017.5
20260505112541 8 265 3.2 6.4 0.00 0.00 0.00 97 1017.5
20260505112039 8 279 1.6 6.4 0.00 0.00 0.00 97 1017.7
20260505111549 8 225 1.6 4.8 0.00 0.00 0.00 97 1017.8
20260505111040 8 247 1.6 4.8 0.00 0.00 0.00 97 1017.8
20260505110541 8 236 0.0 4.8 0.00 0.00 0.00 97 1018.0
20260505102038 8 325 0.0 3.2 0.00 0.00 0.00 96 1018.0
20260505101556 8 0 0.0 6.4 0.00 0.00 0.00 96 1017.8
20260505101041 8 190 1.6 6.4 0.00 0.00 0.00 96 1017.6
20260505100542 8 226 1.6 6.4 0.00 0.00 0.00 96 1017.5
20260505100045 8 217 1.6 6.4 0.00 0.00 0.00 96 1017.6
20260505095542 8 61 1.6 6.4 0.00 0.00 0.00 96 1017.8
20260505095042 8 178 1.6 6.4 0.00 0.00 0.00 96 1017.6
20260505094545 8 239 1.6 4.8 0.00 0.00 0.00 96 1017.8
20260505094042 8 0 1.6 4.8 0.00 0.00 0.00 96 1018.0
20260505093540 8 239 0.0 6.4 0.00 0.00 0.00 96 1018.0
20260505093050 8 165 1.6 6.4 0.00 0.00 0.00 96 1017.9
20260505092539 8 225 1.6 11.3 0.00 0.00 0.00 96 1018.2
20260505092041 8 128 1.6 11.3 0.00 0.00 0.00 96 1018.2
20260505091550 8 219 3.2 9.7 0.00 0.00 0.00 96 1017.9
20260505091038 8 286 4.8 9.7 0.00 0.00 0.00 96 1018.1
20260505090541 8 216 3.2 9.7 0.00 0.00 0.00 96 1018.1
20260505090059 8 93 0.0 9.7 0.00 0.00 0.00 96 1018.3
20260505085543 8 232 1.6 9.7 0.00 0.00 0.00 96 1018.4
20260505085042 8 221 1.6 11.3 0.00 0.00 0.00 96 1018.3
20260505084551 8 219 3.2 11.3 0.00 0.00 0.00 96 1018.5
20260505084041 8 221 4.8 11.3 0.00 0.00 0.00 96 1018.3
20260505083541 8 221 1.6 8.0 0.00 0.00 0.00 96 1018.4
20260505083056 8 9 3.2 8.0 0.00 0.00 0.00 96 1018.4
20260505082542 8 242 3.2 8.0 0.00 0.00 0.00 96 1018.2
20260505082042 8 221 3.2 6.4 0.00 0.00 0.00 96 1018.2
20260505081550 8 196 4.8 8.0 0.00 0.00 0.00 96 1018.2
20260505081045 8 209 3.2 8.0 0.00 0.00 0.00 96 1018.3
20260505080541 8 225 1.6 8.0 0.00 0.00 0.00 96 1018.3
20260505080049 8 250 3.2 8.0 0.00 0.00 0.00 96 1018.2
20260505075542 8 208 3.2 6.4 0.00 0.00 0.00 96 1018.4
20260505075039 8 205 1.6 8.0 0.00 0.00 0.00 96 1018.5
20260505074552 8 225 3.2 8.0 0.00 0.00 0.00 96 1018.5
20260505074038 8 265 1.6 6.4 0.00 0.00 0.00 96 1018.5
20260505073545 8 273 1.6 8.0 0.00 0.00 0.00 96 1018.5
20260505073048 8 215 3.2 8.0 0.00 0.00 0.00 96 1018.4
20260505072544 8 229 3.2 8.0 0.00 0.00 0.00 96 1018.5
20260505072042 8 232 1.6 4.8 0.00 0.00 0.00 96 1018.5
20260505071548 8 221 3.2 4.8 0.00 0.00 0.00 96 1018.6
20260505071041 8 221 1.6 4.8 0.00 0.00 0.00 96 1018.7
20260505070543 8 221 1.6 3.2 0.00 0.00 0.00 96 1018.8
20260505070051 8 205 0.0 6.4 0.00 0.00 0.00 95 1018.7
20260505065542 8 22 1.6 6.4 0.00 0.00 0.00 95 1018.8
20260505065041 8 250 1.6 9.7 0.00 0.00 0.00 95 1018.7
20260505064549 8 227 3.2 9.7 0.00 0.00 0.00 95 1018.5
20260505064041 8 282 3.2 14.5 0.00 0.00 0.00 95 1018.5
20260505063541 8 191 6.4 16.1 0.00 0.00 0.00 95 1018.4
20260505063048 8 234 4.8 16.1 0.00 0.00 0.00 95 1018.3
20260505062542 8 250 6.4 19.3 0.00 0.00 0.00 95 1018.2
20260505062042 8 238 6.4 19.3 0.00 0.00 0.00 95 1018.2
20260505061548 8 241 4.8 14.5 0.00 0.00 0.00 95 1018.1
20260505061038 8 238 6.4 16.1 0.00 0.00 0.00 95 1018.1
20260505060543 8 275 4.8 16.1 0.00 0.00 0.00 95 1018.1
20260505060052 8 236 6.4 16.1 0.00 0.00 0.00 95 1018.2
20260505055539 8 226 6.4 12.9 0.00 0.00 0.00 94 1018.2
20260505055043 8 245 4.8 11.3 0.00 0.00 0.00 94 1018.3
20260505054550 8 314 3.2 11.3 0.00 0.00 0.00 94 1018.3
20260505054042 8 210 3.2 8.0 0.00 0.00 0.00 94 1018.3
20260505053542 8 217 3.2 9.7 0.00 0.00 0.00 94 1018.4
20260505053059 8 233 3.2 9.7 0.00 0.00 0.00 94 1018.3
20260505052541 8 254 3.2 6.4 0.00 0.00 0.00 94 1018.3
20260505052042 8 259 3.2 8.0 0.00 0.00 0.00 93 1018.4
20260505051549 9 221 3.2 8.0 0.00 0.00 0.00 93 1018.3
20260505051043 9 219 3.2 11.3 0.00 0.00 0.00 93 1018.3
20260505050539 9 242 3.2 12.9 0.00 0.00 0.00 93 1018.4
20260505041550 10 265 4.8 14.5 0.00 0.00 0.00 92 1018.9
20260505041044 10 315 3.2 9.7 0.00 0.00 0.00 92 1018.8
20260505040544 10 245 3.2 11.3 0.00 0.00 0.00 92 1018.7
20260505040050 10 301 3.2 11.3 0.00 0.00 0.00 91 1018.7
20260505035541 10 232 3.2 11.3 0.00 0.00 0.00 91 1018.5
20260505035046 10 221 3.2 9.7 0.00 0.00 0.00 91 1018.3
20260505034546 10 215 1.6 8.0 0.00 0.00 0.00 90 1018.3
20260505034039 10 257 3.2 8.0 0.00 0.00 0.00 90 1018.2
20260505033540 10 255 3.2 9.7 0.00 0.00 0.00 90 1018.1
20260505033108 10 209 1.6 11.3 0.00 0.00 0.00 90 1018.0
20260505032537 10 229 1.6 11.3 0.00 0.00 0.00 90 1017.9
20260505032039 10 196 3.2 11.3 0.00 0.00 0.00 89 1017.9
20260505031550 10 287 3.2 12.9 0.00 0.00 0.00 89 1017.9
20260505031042 10 0 3.2 12.9 0.00 0.00 0.00 88 1017.8
20260505030539 10 257 4.8 12.9 0.00 0.00 0.00 88 1017.8
20260505030052 10 229 4.8 12.9 0.00 0.00 0.00 88 1017.9
20260505025538 10 227 3.2 12.9 0.00 0.00 0.00 88 1017.9
20260505025040 10 254 3.2 11.3 0.00 0.00 0.00 88 1017.9
20260505024546 10 142 3.2 16.1 0.00 0.00 0.00 87 1017.7
20260505024041 10 227 4.8 17.7 0.00 0.00 0.00 87 1017.8
20260505023538 10 237 4.8 17.7 0.00 0.00 0.00 88 1017.9
20260505023059 10 242 4.8 16.1 0.00 0.00 0.00 87 1017.9
20260505022539 10 249 3.2 16.1 0.00 0.00 0.00 87 1018.0
20260505022042 10 273 4.8 17.7 0.00 0.00 0.00 88 1017.8
20260505021553 11 239 4.8 17.7 0.00 0.00 0.00 88 1017.9
20260505021041 11 195 4.8 17.7 0.00 0.00 0.00 90 1017.8
20260505020538 11 237 4.8 11.3 0.00 0.00 0.00 91 1017.9
20260505020055 11 207 4.8 14.5 0.00 0.00 0.00 91 1017.8
20260505015538 11 230 4.8 14.5 0.00 0.00 0.00 91 1017.8
20260505015042 11 241 4.8 12.9 0.00 0.00 0.00 91 1017.9
20260505014549 11 226 4.8 12.9 0.00 0.00 0.00 91 1018.1
20260505014044 11 287 4.8 16.1 0.00 0.00 0.00 91 1018.2
20260505013539 11 201 4.8 16.1 0.00 0.00 0.00 91 1018.3
20260505013052 11 205 4.8 16.1 0.00 0.00 0.00 91 1018.3
20260505012540 11 279 6.4 16.1 0.00 0.00 0.00 91 1018.3
20260505012043 11 233 6.4 16.1 0.00 0.00 0.00 91 1018.3
20260505011558 11 209 6.4 17.7 0.00 0.00 0.00 91 1018.3
20260505011041 11 247 8.0 19.3 0.00 0.00 0.00 91 1018.3
20260505010540 11 271 6.4 19.3 0.00 0.00 0.00 90 1018.4
20260505010049 11 221 6.4 16.1 0.00 0.00 0.00 90 1018.4
20260505005540 11 296 4.8 19.3 0.00 0.00 0.00 90 1018.4
20260505005042 11 230 8.0 20.9 0.00 0.00 0.00 90 1018.4
20260505004558 11 241 8.0 20.9 0.00 0.00 0.00 89 1018.5
20260505004041 11 221 6.4 16.1 0.00 0.00 0.00 89 1018.5
20260505003538 11 287 8.0 16.1 0.00 0.00 0.00 88 1018.5
20260505003049 11 284 6.4 16.1 0.00 0.00 0.00 88 1018.5
20260505002542 11 271 6.4 16.1 0.00 0.00 0.00 88 1018.5
20260505002039 11 309 6.4 16.1 0.00 0.00 0.00 88 1018.5
20260505001550 11 192 6.4 16.1 0.00 0.00 0.00 88 1018.7
20260505001038 11 235 6.4 16.1 0.00 0.00 0.00 88 1018.6
20260505000541 11 265 8.0 17.7 0.00 0.00 0.00 87 1018.5
20260505000051 11 215 6.4 17.7 0.00 0.00 0.00 86 1018.5
20260504235541 11 298 6.4 16.1 0.00 0.00 0.00 86 1018.5
20260504235044 11 245 6.4 16.1 0.00 0.00 0.00 86 1018.5
20260504234613 11 215 6.4 20.9 0.00 0.00 0.00 86 1018.4
20260504234038 11 208 6.4 20.9 0.00 0.00 0.00 86 1018.5
20260504233538 11 212 6.4 20.9 0.00 0.00 0.00 85 1018.5
20260504233051 12 267 6.4 16.1 0.00 0.00 0.00 86 1018.4
20260504232539 12 225 8.0 16.1 0.00 0.00 0.00 85 1018.3
20260504232041 12 237 8.0 17.7 0.00 0.00 0.00 85 1018.4
20260504231554 12 281 8.0 17.7 0.00 0.00 0.00 85 1018.3
20260504231038 12 250 6.4 17.7 0.00 0.00 0.00 85 1018.5